Weather History for Watford City, ND

Change the Weather History Date:

Sunday, September 1, 2013

  Actual Average (KISN) Record (KISN)
Temperature  
Mean Temperature 64 °F 64 °F  
Max Temperature 73 °F 78 °F 104 °F (1983)
Min Temperature 55 °F 49 °F 34 °F (1946)
Degree Days  
Heating Degree Days 1 4  
Month to date heating degree days 4  
Since 1 July heating degree days 75  
Cooling Degree Days 0 2  
Month to date cooling degree days 2  
Year to date cooling degree days 431  
Growing Degree Days 14 (Base 50)    
Moisture  
Dew Point 55 °F    
Average Humidity 75    
Maximum Humidity 100    
Minimum Humidity 50    
Precipitation  
Precipitation 0.00 in 0.04 in 0.62 in (1973)
Month to date precipitation 0.04  
Year to date precipitation 11.16  
Sea Level Pressure  
Sea Level Pressure 30.06 in    
Wind  
Wind Speed 5 mph (East)    
Max Wind Speed 10 mph    
Max Gust Speed -    
Visibility 10 miles    
Events      
T = Trace of Precipitation, MM = Missing Value Source: NWS Daily Summary

Daily Weather History Graph

Daily Weather History Graph

Search for Another Location

Airport:

Trip Planner

Search our weather history database for the weather conditions in past years. The results will help you decide how hot, cold, wet, or windy it might be!

Date:

Astronomy

Sep. 01, 2013 Rise Set
Actual Time 7:11 AM CDT 8:33 PM CDT
Civil Twilight 6:39 AM CDT 9:05 PM CDT
Nautical Twilight 6:00 AM CDT 9:43 PM CDT
Astronomical Twilight 5:19 AM CDT 10:25 PM CDT
Moon 3:25 AM CDT (9/1) 6:20 PM CDT (9/1)
Length of Visible Light 14h 25m
Length of Day
13h 21m
Waning Crescent, 13% of the Moon is Illuminated
Sep 1
Waning Crescent
Sep 5
New
Sep 12
First Quarter
Sep 19
Full
Sep 26
Last Quarter

Hourly Weather History & Observations

Time (CDT) Temp. Dew Point Humidity Pressure Visibility Wind Dir Wind Speed Gust Speed Precip Events Conditions
12:15 AM 60.8 °F 51.8 °F 72% 30.00 in 10.0 mi NW 8.1 mph - N/A   Clear
12:35 AM 59.0 °F 51.8 °F 77% 30.01 in 10.0 mi WNW 5.8 mph - N/A   Clear
12:55 AM 59.0 °F 53.6 °F 82% 30.01 in 10.0 mi WNW 5.8 mph - N/A   Clear
1:15 AM 55.4 °F 51.8 °F 88% 30.02 in 10.0 mi SSW 5.8 mph - N/A   Clear
1:35 AM 57.2 °F 53.6 °F 88% 30.02 in 10.0 mi SSW 5.8 mph - N/A   Mostly Cloudy
1:55 AM 57.2 °F 53.6 °F 88% 30.03 in 10.0 mi WSW 4.6 mph - N/A   Overcast
2:15 AM 59.0 °F 53.6 °F 82% 30.03 in 10.0 mi WSW 4.6 mph - N/A   Overcast
2:35 AM 57.2 °F 53.6 °F 88% 30.03 in 10.0 mi WSW 4.6 mph - N/A   Overcast
2:55 AM 59.0 °F 55.4 °F 88% 30.03 in 10.0 mi Calm Calm - N/A   Overcast
3:15 AM 59.0 °F 55.4 °F 88% 30.03 in 10.0 mi South 3.5 mph - N/A   Overcast
3:35 AM 59.0 °F 55.4 °F 88% 30.03 in 10.0 mi Calm Calm - N/A   Overcast
3:55 AM 59.0 °F 55.4 °F 88% 30.04 in 10.0 mi Calm Calm - N/A   Overcast
4:15 AM 57.2 °F 55.4 °F 94% 30.04 in 10.0 mi SW 3.5 mph - N/A   Overcast
4:35 AM 57.2 °F 55.4 °F 94% 30.04 in 10.0 mi SW 4.6 mph - N/A   Overcast
4:55 AM 59.0 °F 55.4 °F 88% 30.04 in 10.0 mi SW 3.5 mph - N/A   Overcast
5:15 AM 59.0 °F 55.4 °F 88% 30.05 in 10.0 mi Calm Calm - N/A   Overcast
5:35 AM 57.2 °F 55.4 °F 94% 30.05 in 10.0 mi SW 3.5 mph - N/A   Overcast
5:55 AM 57.2 °F 55.4 °F 94% 30.06 in 10.0 mi SW 4.6 mph - N/A   Overcast
6:15 AM 57.2 °F 55.4 °F 94% 30.05 in 10.0 mi WSW 3.5 mph - N/A   Overcast
6:35 AM 57.2 °F 57.2 °F 100% 30.06 in 10.0 mi SSW 3.5 mph - N/A   Overcast
6:55 AM 57.2 °F 57.2 °F 100% 30.07 in 10.0 mi Calm Calm - N/A   Overcast
7:15 AM 57.2 °F 57.2 °F 100% 30.07 in 10.0 mi Calm Calm - N/A   Mostly Cloudy
7:35 AM 55.4 °F 55.4 °F 100% 30.08 in 10.0 mi SSW 3.5 mph - N/A   Mostly Cloudy
7:55 AM 57.2 °F 57.2 °F 100% 30.08 in 10.0 mi Calm Calm - N/A   Mostly Cloudy
8:15 AM 57.2 °F 55.4 °F 94% 30.08 in 10.0 mi Calm Calm - N/A   Partly Cloudy
8:35 AM 57.2 °F 57.2 °F 100% 30.09 in 10.0 mi Calm Calm - N/A   Clear
8:55 AM 60.8 °F 57.2 °F 88% 30.09 in 10.0 mi North 3.5 mph - N/A   Scattered Clouds
9:15 AM 62.6 °F 57.2 °F 82% 30.10 in 10.0 mi North 4.6 mph - N/A   Scattered Clouds
9:35 AM 62.6 °F 57.2 °F 82% 30.10 in 10.0 mi NNE 5.8 mph - N/A   Clear
9:55 AM 64.4 °F 57.2 °F 77% 30.10 in 10.0 mi ENE 4.6 mph - N/A   Mostly Cloudy
10:15 AM 64.4 °F 57.2 °F 77% 30.11 in 10.0 mi NE 3.5 mph - N/A   Scattered Clouds
10:35 AM 66.2 °F 57.2 °F 73% 30.11 in 10.0 mi NE 5.8 mph - N/A   Mostly Cloudy
10:55 AM 66.2 °F 57.2 °F 73% 30.11 in 10.0 mi NW 4.6 mph - N/A   Overcast
11:15 AM 66.2 °F 57.2 °F 73% 30.11 in 10.0 mi Calm Calm - N/A   Mostly Cloudy
11:35 AM 68.0 °F 55.4 °F 64% 30.10 in 10.0 mi Calm Calm - N/A   Overcast
11:55 AM 66.2 °F 57.2 °F 73% 30.10 in 10.0 mi West 3.5 mph - N/A   Overcast
12:15 PM 66.2 °F 55.4 °F 68% 30.10 in 10.0 mi NW 3.5 mph - N/A   Overcast
12:35 PM 68.0 °F 55.4 °F 64% 30.10 in 10.0 mi NNW 8.1 mph - N/A   Overcast
12:55 PM 68.0 °F 55.4 °F 64% 30.10 in 10.0 mi NNE 8.1 mph - N/A   Mostly Cloudy
1:15 PM 68.0 °F 55.4 °F 64% 30.10 in 10.0 mi NW 4.6 mph - N/A   Mostly Cloudy
1:35 PM 69.8 °F 55.4 °F 60% 30.09 in 10.0 mi NE 5.8 mph - N/A   Mostly Cloudy
1:55 PM 71.6 °F 53.6 °F 53% 30.09 in 10.0 mi NW 4.6 mph - N/A   Mostly Cloudy
2:15 PM 71.6 °F 55.4 °F 57% 30.09 in 10.0 mi Calm Calm - N/A   Mostly Cloudy
2:35 PM 71.6 °F 53.6 °F 53% 30.08 in 10.0 mi ENE 3.5 mph - N/A   Mostly Cloudy
2:55 PM 71.6 °F 53.6 °F 53% 30.08 in 10.0 mi Calm Calm - N/A   Overcast
3:15 PM 71.6 °F 53.6 °F 53% 30.08 in 10.0 mi North 4.6 mph - N/A   Mostly Cloudy
3:35 PM 71.6 °F 53.6 °F 53% 30.08 in 10.0 mi North 4.6 mph - N/A   Overcast
3:55 PM 71.6 °F 53.6 °F 53% 30.07 in 10.0 mi NW 4.6 mph - N/A   Overcast
4:15 PM 73.4 °F 53.6 °F 50% 30.07 in 10.0 mi ENE 5.8 mph - N/A   Overcast
4:35 PM 71.6 °F 53.6 °F 53% 30.06 in 10.0 mi NE 5.8 mph - N/A   Mostly Cloudy
4:55 PM 73.4 °F 53.6 °F 50% 30.06 in 10.0 mi East 4.6 mph - N/A   Mostly Cloudy
5:15 PM 73.4 °F 53.6 °F 50% 30.06 in 10.0 mi East 4.6 mph - N/A   Scattered Clouds
5:35 PM 73.4 °F 53.6 °F 50% 30.05 in 10.0 mi East 9.2 mph - N/A   Scattered Clouds
5:55 PM 73.4 °F 53.6 °F 50% 30.05 in 10.0 mi East 5.8 mph - N/A   Clear
6:15 PM 73.4 °F 55.4 °F 53% 30.04 in 10.0 mi East 9.2 mph - N/A   Mostly Cloudy
6:35 PM 73.4 °F 55.4 °F 53% 30.04 in 10.0 mi East 8.1 mph - N/A   Scattered Clouds
6:55 PM 71.6 °F 55.4 °F 57% 30.04 in 10.0 mi ENE 10.4 mph - N/A   Scattered Clouds
7:15 PM 71.6 °F 55.4 °F 57% 30.04 in 10.0 mi East 9.2 mph - N/A   Partly Cloudy
7:35 PM 71.6 °F 55.4 °F 57% 30.04 in 10.0 mi East 6.9 mph - N/A   Scattered Clouds
7:55 PM 69.8 °F 55.4 °F 60% 30.04 in 10.0 mi East 10.4 mph - N/A   Partly Cloudy
8:15 PM 68.0 °F 55.4 °F 64% 30.03 in 10.0 mi ESE 9.2 mph - N/A   Clear
8:35 PM 66.2 °F 55.4 °F 68% 30.04 in 10.0 mi ESE 8.1 mph - N/A   Clear
8:55 PM 62.6 °F 55.4 °F 77% 30.04 in 10.0 mi East 8.1 mph - N/A   Clear
9:15 PM 62.6 °F 55.4 °F 77% 30.03 in 10.0 mi ESE 9.2 mph - N/A   Clear
9:35 PM 60.8 °F 55.4 °F 82% 30.04 in 10.0 mi ESE 9.2 mph - N/A   Clear
9:55 PM 60.8 °F 55.4 °F 82% 30.04 in 10.0 mi ESE 9.2 mph - N/A   Clear
10:15 PM 59.0 °F 55.4 °F 88% 30.04 in 10.0 mi ESE 9.2 mph - N/A   Clear
10:35 PM 59.0 °F 55.4 °F 88% 30.04 in 10.0 mi ESE 8.1 mph - N/A   Clear
10:55 PM 59.0 °F 53.6 °F 82% 30.04 in 10.0 mi ESE 8.1 mph - N/A   Clear
11:15 PM 57.2 °F 53.6 °F 88% 30.05 in 10.0 mi ESE 3.5 mph - N/A   Clear
11:35 PM 57.2 °F 53.6 °F 88% 30.05 in 10.0 mi ESE 4.6 mph - N/A   Clear
11:55 PM 57.2 °F 53.6 °F 88% 30.05 in 10.0 mi East 4.6 mph - N/A   Clear